Showing default

YAOGAN-35 04A, 53522

Orbit data source: Space-Track

YAOGAN-35 04A, 53522 is a payload satellite owned by PLA GAD (CN) in LEO that was launched on Fri, 19 Aug 2022 UTC via a CHANG ZHENG 2D launch vehicle from the Xichang Space Center, China (XSC). Payload-class satellites include a variety of spacecraft equipped with specific instruments for various scientific and technological missions. These include communications satellites like Starlink; space stations such as the ISS; scientific satellites like the Hubble; Earth observation satellites from companies like Planet Labs, Umbra, and HawkEye 360; GPS; miniature CubeSats for education and research; and military/defense satellites.

Loading next visibility...
Identifier
53522, 2022-100A
Orbit
LEO
Country
Flag of CNCN / PRC
Related business
Manufacturer
DFH
Mission
Operational Defense Sigint
Bus & Motor
Unknown
Mass
~300 kg wet, ~300 kg dry
Launch date (UTC)
2022-08-19 (4 years ago)
Launch vehicle
CHANG ZHENG 2D
Launch site
Xichang Space Center, China (XSC)
Object type
Payload
Rocket body
Debris
Shape & HBR
Box + 2 Pan, 2.5 m
Radar Cross Section
11.063 m², Large (>1 m²)

Expand to show TLE details & history
Last TLE update: 1 day ago

TLE from 1 day ago
0 YAOGAN-35 04A
1 53522U 22100A   26172.31627707  .00007950  00000-0  33164-3 0  9994
2 53522  35.0116  25.8277 0005268 301.0630  58.9568 15.22946147213895
Epoch: 2026-06-21T07:35Z
TLE epoch observation values (Epoch: 2026-06-21T07:35:26.338Z)
Latitude
-0°
Longitude
2.44966°
Altitude
494.002 km
Speed
7.621 km/s
True Right ascension
01h 43m 18s
True Declination
0° 00' 00"
Sunlit
Object was in daylight at epoch
Visualization orbit readout
Latitude
Unknown
Longitude
Unknown
Altitude
Unknown
Speed
Unknown
Apparent Right ascension
Unknown
Apparent Declination
Unknown
Sunlit
N/A
Visualization observer readout
Local Sidereal Time
21:27:18
Azimuth
Unknown
Elevation
Unknown
Doppler factor
Unknown
Orbital elements
Apogee altitude
503.831 km
Perigee altitude
496.584 km
Semi-major axis
6,878.345 km
Eccentricity
0.00053
Inclination
35.0116°
RAAN
25.8277°
Arg. of periapsis
301.063°
True anomaly
59.00854°
Mean anomaly
58.9568°
Eccentric anomaly
58.98267°
Mean motion
3.80467 °/min
Orbital period
94.62 mins
BSTAR
0.00033164
Loading maneuver chart data...
Computing Atmospheric mass density...
Loading historical data...
Loading historical data...
Loading historical data...
Loading historical data...
Loading historical data...
Loading historical data...
Loading historical data...
Other satellites on launch #100 in the year 2022 (2022-08-19 UTC)

Documentation

Showing up to 5 results
|